This is the latest recevied weather packets stored in our database for station/object WC4PEM-14. If no packets are shown the sender has not sent any weather packets the latest 1 day(s).
| Time | Temp. | Humidity | Pressure | Rain* | Wind** | Luminosity | Snow |
|---|---|---|---|---|---|---|---|
| 1778042884 | 21.67° C | 74% | 1016.3 hPa | 0 mm | 1.34 m/s, 80° | - | - |
| 1778042584 | 21.67° C | 74% | 1016.2 hPa | 0 mm | 1.34 m/s, 93° | - | - |
| 1778042462 | 21.67° C | 74% | 1016.2 hPa | 0 mm | 0.89 m/s, 93° | - | - |
| 1778042340 | 21.67° C | 74% | 1016.3 hPa | 0 mm | 0.89 m/s, 87° | - | - |
| 1778042284 | 21.67° C | 74% | 1016.2 hPa | 0 mm | 0.89 m/s, 93° | - | - |
| 1778041984 | 21.67° C | 74% | 1016.3 hPa | 0 mm | 0.89 m/s, 87° | - | - |
| 1778041684 | 21.67° C | 74% | 1016.2 hPa | 0 mm | 0.89 m/s, 103° | - | - |
| 1778041490 | 21.67° C | 73% | 1016.2 hPa | 0 mm | 0.89 m/s, 51° | - | - |
| 1778041389 | 21.11° C | 77% | 1015.9 hPa | 0 mm | 0.89 m/s, 93° | - | - |
| 1778041384 | 21.67° C | 74% | 1016.2 hPa | 0 mm | 0.45 m/s, 100° | - | - |
| 1778041111 | 22.22° C | 73% | 1016.1 hPa | 0 mm | 0.89 m/s, 51° | - | - |
| 1778041084 | 21.67° C | 73% | 1016.2 hPa | 0 mm | 0.89 m/s, 51° | - | - |
| 1778040784 | 22.22° C | 73% | 1016.1 hPa | 0 mm | 0.89 m/s, 51° | - | - |
| 1778040484 | 22.22° C | 73% | 1016.2 hPa | 0 mm | 1.34 m/s, 105° | - | - |
| 1778040184 | 22.22° C | 72% | 1016.1 hPa | 0 mm | 1.34 m/s, 117° | - | - |
| 1778039884 | 22.22° C | 72% | 1016.1 hPa | 0 mm | 1.34 m/s, 116° | - | - |
| 1778039778 | 22.22° C | 73% | 1016.2 hPa | 0 mm | 0.89 m/s, 123° | - | - |
| 1778039584 | 22.22° C | 73% | 1016.2 hPa | 0 mm | 0.89 m/s, 123° | - | - |
| 1778039534 | 22.22° C | 73% | 1016.2 hPa | 0 mm | 1.34 m/s, 126° | - | - |
| 1778039284 | 22.22° C | 73% | 1016.2 hPa | 0 mm | 1.34 m/s, 126° | - | - |
| 1778038984 | 22.22° C | 72% | 1016.2 hPa | 0 mm | 1.34 m/s, 107° | - | - |
| 1778038684 | 22.22° C | 72% | 1016.2 hPa | 0 mm | 1.34 m/s, 109° | - | - |
| 1778038384 | 22.22° C | 72% | 1016.2 hPa | 0 mm | 1.34 m/s, 104° | - | - |
| 1778038084 | 22.22° C | 71% | 1016 hPa | 0 mm | 1.34 m/s, 113° | - | - |
| 1778037784 | 22.22° C | 70% | 1016 hPa | 0 mm | 1.34 m/s, 103° | - | - |
* Rain latest hour (hover to see other rain measurements)
** Current wind speed in m/s (hover to see current wind gust speed)